Location: ????????
(55.4717°N, 39.1821°E)
Time: 15:40:01
(UTC+00:00)

Cosmos 1484 Rocket - Pass Details

Date: 14 April 2024
Orbit: 480 x 524 km, 97.6° (Epoch: 23 May)

Event Time Altitude Azimuth Distance (km) Brightness Sun altitude
Rises 01:31:05 0° 19° (NNE) 2,592 7.1 -7.3°
Reaches altitude 10° 01:33:18 10° 28° (NNE) 1,696 6.3 -7.0°
Maximum altitude 01:36:43 38° 98° (E) 766 4.2 -6.6°
Drops below altitude 10° 01:40:04 10° 168° (SSE) 1,665 5.1 -6.2°
Sets 01:42:13 0° 176° (S) 2,536 6.0 -5.9°
